Location: Eschertshofen
(49.3064°N, 11.5756°E)
Time: 02:15:33
(UTC+00:00)

COSMOS 2406 - Pass Details

Date: 18 September 2020
Orbit: 844 x 863 km, 71.0° (Epoch: 30 October)

Event Time Altitude Azimuth Distance (km) Brightness Sun altitude
Rises 19:02:44 0° 334° (NNW) 3,415 7.2 -17.1°
Reaches altitude 10° 19:05:30 10° 345° (NNW) 2,476 6.2 -17.5°
Maximum altitude 19:10:27 30° 46° (NE) 1,479 4.3 -18.3°
Enters shadow 19:12:16 25° 78° (ENE) 1,647 4.3 -18.5°
